Home   Weather   Traun   Past weeks

Flag for Austria Past Weather in Traun, Upper Austria, Austria — Yesterday and Last 2 Weeks

55 °F

Light rain. Overcast.

Feels Like: 55 °F
Forecast: 50 / 58 °F
Wind: 2 mph from North

Location: Linz / Hoersching-Flughafen

Current Time: Oct 25, 2016 at 7:33:28 PM

Latest Report: Oct 25, 2016 at 6:50 PM

Visibility: 4 mi

Pressure: 30.21 "Hg

Humidity: 94%

Dew Point: 54 °F

Location of TraunLocation

Past Weather in Traun — Graph


Traun Temperature Yesterday

Maximum temperature yesterday: 54 °F (at 2:50 PM)
Minimum temperature yesterday: 43 °F (at 12:50 AM)
Average temperature yesterday: 46 °F

High & Low Weather Summary for the Past Weeks

High66 °F (Oct 16, 2:20 PM)100% (Oct 10, 9:20 PM)30.30 "Hg (Oct 10, 9:20 PM)
Low32 °F (Oct 23, 2:50 AM)54% (Oct 22, 2:50 PM)29.74 "Hg (Oct 15, 4:20 AM)
Average47 °F89%30.05 "Hg
* Reported Oct 10 6:20 PM — Oct 25 6:20 PM, Traun, Weather by CustomWeather, © 2016

Note: Actual official high and low records may vary slightly from our data, if they occured in-between our weather recording intervals... More about our weather records


Traun Weather History for the Previous 24 Hours

Scroll right to see more
Time TempWeatherWind HumidityBarometerVisibility
6:20 PM
Tue, Oct 25
55 °FLight rain. Passing clouds.1 mph94%30.18 "Hg5 mi
5:50 PM55 °FLight rain. Partly sunny.3 mph94%30.18 "Hg6 mi
5:20 PM55 °FPartly sunny.1 mph94%30.18 "HgN/A
4:50 PM55 °FPartly sunny.3 mph88%30.18 "HgN/A
4:20 PM55 °FPartly sunny.3 mph88%30.18 "HgN/A
3:50 PM55 °FPartly sunny.3 mph88%30.18 "Hg5 mi
3:20 PM55 °FPartly sunny.2 mph88%30.18 "Hg4 mi
2:50 PM55 °FBroken clouds.3 mph82%30.15 "Hg4 mi
2:20 PM54 °FBroken clouds.2 mph88%30.18 "Hg5 mi
1:50 PM54 °FPartly sunny.2 mph88%30.18 "Hg5 mi
1:20 PM54 °FBroken clouds.2 mph88%30.18 "Hg4 mi
12:50 PM52 °FFog.3 mph94%30.21 "Hg2 mi
12:20 PM50 °FFog.7 mph94%30.21 "Hg2 mi
11:50 AM50 °FBroken clouds.6 mph94%30.21 "Hg5 mi
11:20 AM48 °FLight rain. Partly sunny.7 mph94%30.21 "Hg5 mi
10:50 AM48 °FLight rain. Broken clouds.5 mph94%30.21 "Hg5 mi
10:20 AM48 °FLight rain. Broken clouds.1 mph94%30.24 "Hg4 mi
9:50 AM48 °FLight rain. Partly sunny.3 mph94%30.21 "Hg4 mi
9:20 AM46 °FPartly sunny.3 mph93%30.21 "HgN/A
8:50 AM46 °FPartly sunny.7 mph93%30.18 "HgN/A
8:20 AM46 °FBroken clouds.9 mph93%30.18 "HgN/A
7:50 AM45 °FBroken clouds.7 mph100%30.15 "Hg4 mi
7:20 AM45 °FFog.8 mph100%30.15 "Hg1 mi
6:50 AM45 °FDrizzle. Fog.6 mph100%30.12 "Hg1 mi
6:20 AM46 °FFog.8 mph100%30.12 "Hg1 mi
5:50 AM46 °FFog.2 mph100%30.07 "Hg1 mi
5:20 AM46 °FFog.1 mph100%30.07 "Hg1 mi
4:50 AM46 °FFog.1 mph100%30.04 "Hg0 mi
4:20 AM45 °FFog.2 mph100%30.04 "Hg1 mi
3:50 AM45 °FFog.1 mph100%30.04 "Hg1 mi
3:20 AM46 °FFog.5 mph93%30.04 "Hg1 mi
2:50 AM46 °FFog.3 mph100%30.04 "Hg1 mi
2:20 AM46 °FFog.3 mph100%30.04 "Hg1 mi
1:50 AM46 °FFog.5 mph100%30.04 "Hg1 mi
1:20 AM46 °FCool.3 mph100%30.04 "Hg1 mi
12:50 AM46 °FFog.5 mph100%30.04 "Hg1 mi
12:20 AM46 °FFog.2 mph100%30.04 "Hg2 mi
11:50 PM
Mon, Oct 24
46 °FFog.6 mph93%30.04 "Hg2 mi
11:20 PM46 °FFog.7 mph93%30.04 "Hg3 mi
10:50 PM46 °FLow clouds.7 mph93%30.04 "Hg4 mi
10:20 PM46 °FPassing clouds.7 mph93%30.04 "Hg4 mi
9:50 PM46 °FLow clouds.7 mph93%30.04 "Hg4 mi
9:20 PM48 °FPassing clouds.7 mph87%30.04 "Hg4 mi
8:50 PM48 °FPassing clouds.8 mph87%30.04 "Hg4 mi
8:20 PM48 °FLow clouds.9 mph87%30.04 "Hg4 mi
7:50 PM48 °FFog.12 mph87%30.04 "Hg3 mi
7:20 PM48 °FPassing clouds.12 mph87%30.04 "Hg4 mi
Weather by CustomWeather, © 2016

See weather overviewHow to use our weather pages